IRIDIUM 37 [+]

Last updated on Jan. 26, 2018, 12:19 a.m. UTC

1 24968U 97056D   18025.85696095  .00231017 -13634-5  73997-3 0  9995
2 24968  86.3773 224.9531 0356262 142.0724 220.6212 15.33488576 64550

Satellite is not in orbit.